Regional Weather Roundup
Issued by NWS Newport/Morehead, NC

Current Version | Previous Version | Graphics & Text | Print | Product List | Glossary On
Versions: 1 2 3 4 5 6 7 8 9 10 11 12 13 14 15 16 17 18 19 20 21 22 23 24 25 26 27 28 29 30 31 32 33 34 35 36 37 38 39 40 41 42 43 44 45 46 47 48 49 50
183 ASUS42 KMHX 051225 RWRMHX WEATHER ROUNDUP FOR EASTERN NORTH CAROLINA NATIONAL WEATHER SERVICE NEWPORT/MOREHEAD CITY NC 700 AM EST FRI FEB 05 2016 NOTE: "FAIR" INDICATES FEW OR NO CLOUDS BELOW 12,000 FEET WITH NO SIGNIFICANT WEATHER AND/OR OBSTRUCTIONS TO VISIBILITY NCZ015>017-031-032-045>047-102-103-051300- NORTH COAST CITY SKY/WX TMP DP RH WIND PRES REMARKS EDENTON LGT RAIN 38 37 96 N13G32 30.15R ELIZABETH CITY RAIN 37 35 92 NW25G33 30.05R KITTY HAWK HVY RAIN 39 38 96 N16G30 29.99R MANTEO RAIN 39 39 98 N21G29 30.02R $$ NCZ045>047-081-094-103-104-051300- CENTRAL COAST CITY SKY/WX TMP DP RH WIND PRES REMARKS FRISCO LGT RAIN N/A N/A N/A N14G29 29.98R SWANQUARTER N/A 39 N/A N/A N18G30 30.03R $$ NCZ095-097-098-100-101-051300- SOUTHERN COAST CITY SKY/WX TMP DP RH WIND PRES REMARKS BEAUFORT LGT RAIN 42 39 89 N23G32 30.07R CEDAR ISLAND N/A 43 N/A N/A NW40G51 30.09R JACKSONVILLE CLOUDY 42 35 76 N24 30.10R PINEY ISLAND NOT AVBL WILMINGTON CLOUDY 42 38 85 N15 30.16R $$ NCZ011>013-027>030-043-044-078>080-089-090>093-098-051300- COASTAL PLAIN CITY SKY/WX TMP DP RH WIND PRES REMARKS AHOSKIE LGT RAIN 36 33 90 N9 30.15R CLINTON MOCLDY 42 38 87 NW7 30.18R ELIZABETHTOWN RAIN 40 37 91 NW12G30 30.20R GOLDSBORO CLOUDY 41 41 100 NW16G22 30.16R GREENVILLE CLOUDY 37 36 93 N13G22 30.14R HAVELOCK CLOUDY 41 37 86 N25G37 30.08R KENANSVILLE N/A 40 35 80 N12G17 30.18R KINSTON CLOUDY 39 36 87 NW16G22 30.14R NEW BERN CLOUDY 40 36 86 NW18G26 30.09R RICHLANDS CLOUDY 39 32 75 NW7 30.15R ROCKY MOUNT CLOUDY 38 34 85 N16G23 30.17R WASHINGTON CLOUDY 38 35 89 N13G30 30.12R WHITEVILLE DRIZZLE 41 38 90 N9 30.18R $$ AMZ130-135-150-152-154-156-158-170-250-252-270-ANZ085-086-088-633-658-670-051300- MARINE OBSERVATIONS STATION/POSITION TIME TEMP WIND PRES WAVE SWELL AIR SEA DIR/SP/G HT/PER HT/PER (UTC) (F) (DEG/KT/KT) (MB) (FT/S) (FT/S) CHESAPEAKE LIGHT 1200 38 340/ 37/ 41 1016.0 64 E VA BEACH 1150 45 53 350/ 33/ 43 1011.0 10/ 6 DUCK 1200 39 46 340/ 29/ 32 1015.1 2 E DUCK 1211 45 N/A 8/ 7 OREGON INLET 1200 40 49 330/ 20/ 32 1015.5 13E OREGON INLT 1200 49 N/A 10/ 7 2/11 HATTERAS CG 1200 43 56 320/ 32/ 37 1014.5 DIAMOND BUOY 1150 70 340/ 31/ 39 1013.1 10/ 8 CAPE LOOKOUT NOT AVBL BEAUFORT LAB 1200 42 54 340/ 21/ 24 1016.7 30 SE NEW RVR IN 1208 41 65 1017.2 30 SE NEW RVR IN 1125 65 N/A 8/ 6 2/11 27 SE WRIGHTSVLE 1208 48 64 360/ 33/ 47 1017.7 5 SE WRIGHTSVLE 1108 47 53 340/ 27/ 41 1017.6 225 S CAPE HAT 1150 69 69 200/ 27/ 31 N/A 8/ 6 2/27 41 SE CHARLESTON 1150 52 68 320/ 23/ 29 1019.4 7/ 6 $$

USA.gov is the U.S. government's official web portal to all federal, state and local government web resources and services.